Regional Weather Roundup
Issued by NWS

Home | Current Version | Previous Version | Text Only | Print | Product List | Glossary On
Versions: 1 2 3 4 5 6 7 8 9 10 11 12 13 14 15 16 17 18 19 20 21 22 23 24 25 26 27 28 29 30 31 32 33 34 35 36 37 38 39 40 41 42 43 44 45 46 47 48 49 50
000
ASUS43 KFSD 012002
RWRSD

WEATHER ROUNDUP FOR SOUTH DAKOTA
NATIONAL WEATHER SERVICE SIOUX FALLS SD
300 PM CDT WED JUL 01 2015

NOTE: "FAIR" INDICATES FEW OR NO CLOUDS BELOW 12,000 FEET WITH NO
SIGNIFICANT WEATHER AND/OR OBSTRUCTIONS TO VISIBILITY.


SDZ001>005-009-010-012>017-012100-
NORTHWEST AND NORTH CENTRAL SOUTH DAKOTA

CITY           SKY/WX    TMP DP  RH WIND       PRES   REMARKS
BUFFALO          N/A     78  62  57 NW7       29.95F
FAITH            N/A     76  62  62 N8        29.99R
MOBRIDGE       PTSUNNY   78  67  68 N7        29.93S
$$

SDZ012>016-024>037-041>051-057-063-072>074-012100-
SOUTHWEST AND SOUTH CENTRAL SOUTH DAKOTA

CITY           SKY/WX    TMP DP  RH WIND       PRES   REMARKS
RAPID CTY ARPT SUNNY     83  58  42 N25G31    30.00S
PIERRE         CLOUDY    78  65  63 N3        29.92R
CUSTER         PTSUNNY   79  48  33 NW8       30.14F
PHILIP         MOSUNNY   79  67  66 N8        29.95F
PINE RIDGE     SUNNY     85  61  44 N8        30.01S
WINNER         FAIR      86  66  51 N7        29.90S
$$

SDZ004>011-016>023-039-040-012100-
NORTHEAST SOUTH DAKOTA

CITY           SKY/WX    TMP DP  RH WIND       PRES   REMARKS
ABERDEEN       PTSUNNY   76  64  66 SE7       29.94S
WATERTOWN      CLOUDY    69  59  70 SE7       29.97S
BROOKINGS      CLOUDY    72  61  68 SE14      29.97S
SISSETON         N/A     73  62  68 S10       29.96S
$$

SDZ017-020-022-023-036>040-048>070-012100-
SOUTHEAST SOUTH DAKOTA

CITY           SKY/WX    TMP DP  RH WIND       PRES   REMARKS
SIOUX FALLS    CLOUDY    72  63  73 SE13      29.94F
HURON          MOSUNNY   79  67  66 E8        29.91S
CHAMBERLAIN    CLOUDY    76  66  69 SE6       29.91S
MITCHELL       MOSUNNY   79  67  66 S8        29.91F
YANKTON        PTSUNNY   77  66  69 E9        29.89S
$$

ABBREVIATIONS USED IN REMARKS
   TC - TEMPERATURE IN CELSIUS
  WCI - WIND CHILL INDEX
   HX - HEAT INDEX
  VSB - VISIBILITY




USA.gov is the U.S. government's official web portal to all federal, state and local government web resources and services.